Погода Молыгино

Погода Молыгино : погода сейчас, прогноз погоды и архив. Всё, что Вы хотите узнать о погоде Молыгино!

Поиск расширенной информации на нашем сайте:

Другие новости

Новости СМИ2

Главная страница сайта

Новости сайта

03.07.2017

Напоминаем, что на нашем специализированном сайте Метеоцентр.Азия вы можете получить высокодетализированные автоматические прогнозы погоды по пунктам России, СНГ и мира в авиационном формате (включающие направление и скорость ветра, видимость, явления погоды, количество и форму облачности, нижнюю и верхнюю границу облачности).


Погода Молыгино - сегодня

Время (UTC), дата Ветер
(°,м/с) 
Видим.   Явления Облачность Т
(°С)
Тd
(°С)
f(%) Тe
(°С)
Pmin
(гПа)
dP
(гПа)
Po
(мм)
O2
(г/м3)
Тmin Tmax R s Состояние
почвы
03 24.07.17 080 (В) н/о    н/о 
+23.5 +10.6 44 +26  1012.2  -0.5  744  274           
06 24.07.17 240 (ЮЗ) н/о    н/о 
+26.1 +8.9 34 +26  1011  -1  744  272           
09 24.07.17 300 (СЗ) н/о    н/о 
+27.6 +8.9 31 +28  1009.2  -1.7  742  270           
12 24.07.17 тихо ()   н/о    н/о 
+26.8 +11 37 +30  1009.1  -0.1  742  270    +28.9       
15 24.07.17 110 (В) н/о    н/о 
+15 +13.2 89 +22  1010.6  0.5  743  281           
18 24.07.17 тихо ()   н/о    н/о 
+11.6 +10.5 93 +14  1010.5  -0.3  743  285           
21 24.07.17 тихо ()   н/о    н/о 
+9 +8.4 96 +9  1010.7  743  288           
00 25.07.17 тихо ()   н/о    н/о 
+15 +12 82 +19  1009.9  -0.3  742  281  +8.5         
03 25.07.17 290 (З) н/о    н/о 
+21.2 +14.3 65 +29  1009  -0.5  742  274           
06 25.07.17 140 (ЮВ) н/о    н/о 
+27.6 +10.3 34 +29  1007.3  -1.3  741  269           
09 25.07.17 180 (Ю) н/о    н/о 
+27.3 +9.4 32 +28  1006  -1.3  740  269           
12 25.07.17 140 (ЮВ) н/о    н/о 
+25.2 +15.7 56 +36  1005.2  -1.1  739  269    +28.6       
15 25.07.17 120 (ЮВ) н/о    н/о 
+18.2 +14.1 77 +28  1005.1  -0.6  739  276           
18 25.07.17 тихо ()   н/о    н/о 
+15.7 +14.5 93 +24  1004.8  -0.5  739  278           
21 25.07.17 тихо ()   н/о    н/о 
+14.8 +13 89 +21  1003.9  -1  738  279           
00 26.07.17 тихо ()   н/о    н/о 
+18.7 +14 74 +26  1003.4  0.1  738  275  +14.2         
03 26.07.17 150 (ЮВ) н/о    н/о 
+24.6 +14.4 53 +33  1002.2  -0.8  737  270           
06 26.07.17 140 (ЮВ) н/о    н/о 
+27.3 +14.7 46 +36  1001.2  -0.9  736  267           
09 26.07.17 120 (ЮВ) 2{15}  н/о    н/о 
+16.9 +16.2 96 +29  1002.1  0.3  737  276           
12 26.07.17 110 (В) н/о    н/о 
+21.5 +18.2 81 +37  1002.1  0.2  737  271    +27.7       
15 26.07.17 160 (Ю) н/о    н/о 
+17 +16.2 95 +29  1003.3  0.9  738  276           
18 26.07.17 тихо ()   н/о    н/о 
+16.5 +15.8 96 +27  1003.3  0.1  737  277           
21 26.07.17 170 (Ю) н/о    н/о 
+16.5 +15.8 96 +29  1003.6  0.3  738  277           
00 27.07.17 тихо ()   н/о    н/о 
+17.5 +16.6 94 +30  1004  0.5  738  276  +15.9         
03 27.07.17 170 (Ю) н/о    н/о 
+18.6 +17.2 92 +33  1004.5  0.5  738  275           
Время (UTC), дата Ветер
(°,м/с) 
Видим.   Явления Облачность Т
(°С)
Тd
(°С)
f(%) Тe
(°С)
Pmin
(гПа)
dP
(гПа)
Po
(мм)
O2
(г/м3)
Тmin Tmax R s Состояние
почвы

Для получения пояснительной информации подведите курсор к названию столбца.

ПОГОДА Молыгино - архив

Всё, что Вы хотите узнать о погоде Молыгино - удобно и подробно!

Выберите нужную дату (начиная с 1 января 2015* года) и нажмите кнопку "Найти".
Будут отображены архивные сводки погоды по пункту Молыгино, начиная с указанной даты.


Отображать данные в формате CSV (для использования в таблицах Excel)


Внимание! Наш архив погоды предназначен исключительно для личного некоммерческого использования в познавательных целях. Если Вам необходимы официальные справки о состоянии погоды (для производственных, юридических, коммерческих и т.п. целей), обращайтесь в органы Росгидромета.

*Примечание: данная дата относится к архиву по метеостанциям СССР (Россия, СНГ, Балтия).
Архив по метеостанциям Зарубежной Европы и Азии (кроме Китая) хранится 10 дней, по другим регионам земного шара (Китай, Африка, Америка, Австралия, Океания) - 1 день.

Молыгино - район местоположения метеостанции


Название, широта, долгота, высота метеостанции:
Молыгино 58.2°ш. 94.8°д. 161 м над ур. моря [Российская Федерация]

Дополнительная информация

В oтличие oт бoльшинства пoгoдных сайтoв мы публикуем пoдрoбную метеoинфoрмацию в детальнoм прoфессиoнальнoм фoрмате.

Характеристики температуры и влажнoсти вoздуха измеряются на высoте 2 м в тени вдали oт зданий и деревьев.
Скoрoсть ветра измеряется на высoте 10 м (на урoвне рoста челoвека скoрoсть ветра ниже в 1.5-2 раза). Если метеoстанция нахoдится в гoрoде или в лесу, тo скoрoсть ветра занижена на 2-4 м/с пo сравнению с oткрытым местoм. Скoрoсть ветра над акватoриями крупных рек и oзёр, а также на вершинах хoлмoв на 2-5 м/с выше, чем в oбычных услoвиях.
Атмoсфернoе давление в разных тoчках местнoсти мoжет значительнo oтличаться oт давления на метеoстанции, в зависимoсти oт услoвий рельефа (при пoдъёме на 10 м давление пoнижается примернo на 1 мм рт.ст.).